This is the latest recevied weather packets stored in our database for station/object W5SDC. If no packets are shown the sender has not sent any weather packets the latest 10 day(s).
| Time | Temp. | Humidity | Pressure | Rain* | Wind** | Luminosity | Snow |
|---|---|---|---|---|---|---|---|
| 1777647017 | 13.89° C | 99% | 1014.8 hPa | 1.78 mm | - | - | - |
| 1777645825 | 13.89° C | 99% | 1014.1 hPa | 4.32 mm | - | - | - |
| 1777644633 | 13.89° C | 99% | 1016.7 hPa | 5.08 mm | - | - | - |
| 1777644028 | 13.89° C | 99% | 1016 hPa | 4.57 mm | - | - | - |
| 1777643716 | 13.89° C | 99% | 1016 hPa | 4.32 mm | - | - | - |
| 1777643443 | 13.89° C | 99% | 1016.3 hPa | 4.06 mm | - | - | - |
| 1777642525 | 13.89° C | 99% | 1015.8 hPa | 2.29 mm | - | - | - |
| 1777641626 | 13.89° C | 99% | 1015.3 hPa | 1.02 mm | - | - | - |
| 1777640142 | 14.44° C | 99% | 1014.7 hPa | 0 mm | - | - | - |
| 1777638345 | 14.44° C | 99% | 1014.4 hPa | 1.02 mm | - | - | - |
| 1777637426 | 14.44° C | 99% | 1014 hPa | 2.03 mm | - | - | - |
| 1777633519 | 14.44° C | 99% | 1014 hPa | 3.56 mm | - | - | - |
| 1777632621 | 14.44° C | 99% | 1014.5 hPa | 3.05 mm | - | - | - |
| 1777629631 | 15° C | 99% | 1014.4 hPa | 0.76 mm | - | - | - |
| 1777628420 | 15° C | 99% | 1013.3 hPa | 0.76 mm | - | - | - |
| 1777628127 | 15° C | 99% | 1012.9 hPa | 0.76 mm | - | - | - |
| 1777626350 | 15° C | 99% | 1014 hPa | 0.76 mm | - | - | - |
| 1777626018 | 15° C | 99% | 1013.6 hPa | 0.76 mm | - | - | - |
| 1777625119 | 15° C | 99% | 1013.7 hPa | 0.76 mm | - | - | - |
| 1777621525 | 15.56° C | 99% | 1015.1 hPa | 0 mm | - | - | - |
| 1777620332 | 15.56° C | 99% | 1015.2 hPa | 0 mm | - | - | - |
| 1777620021 | 15.56° C | 99% | 1015.1 hPa | 0 mm | - | - | - |
| 1777616719 | 15.56° C | 99% | 1014 hPa | 0.25 mm | - | - | - |
| 1777614922 | 15.56° C | 99% | 1014 hPa | 0.25 mm | - | - | - |
| 1777614317 | 16.11° C | 99% | 1014.6 hPa | 0.25 mm | - | - | - |
* Rain latest hour (hover to see other rain measurements)
** Current wind speed in m/s (hover to see current wind gust speed)